Location: Brighton Point
(40.6144°N, 111.7933°W)
Time: 23:43:26
(UTC+00:00)

N. Korean satellite - Pass Details

Date: 12 March 2021
Orbit: 453 x 499 km, 97.2° (Epoch: 11 April)

Event Time Altitude Azimuth Distance (km) Brightness Sun altitude
Rises 12:21:55 0° 21° (NNE) 2,559 10.7 -16.2°
Reaches altitude 10° 12:24:07 10° 31° (NNE) 1,681 9.9 -15.8°
Maximum altitude 12:27:27 34° 98° (E) 827 8.4 -15.2°
Drops below altitude 10° 12:30:47 10° 164° (SSE) 1,688 9.4 -14.5°
Sets 12:32:59 0° 174° (S) 2,570 10.2 -14.1°
